Regional Weather Roundup
Issued by NWS

Home | Current Version | Previous Version | Graphics & Text | Print | Product List | Glossary On
Versions: 1 2 3 4 5 6 7 8 9 10 11 12 13 14 15 16 17 18 19 20 21 22 23 24 25 26 27 28 29 30 31 32 33 34 35 36 37 38 39 40 41 42 43 44 45 46 47 48 49 50
000
ASUS43 KLMK 020210
RWRKY
KENTUCKY REGIONAL WEATHER ROUNDUP
NATIONAL WEATHER SERVICE LOUISVILLE KY
1000 PM EDT TUE SEP 01 2015

NOTE "FAIR" INDICATES FEW OR NO CLOUDS BELOW 12,000 FEET
WITH NO SIGNIFICANT WEATHER AND/OR OBSTRUCTIONS TO VISIBILITY.

KYZ001>023-026-027-061>063-070>075-020300-
WESTERN AND SOUTH CENTRAL KENTUCKY

CITY           SKY/WX    TMP DP  RH WIND       PRES   REMARKS
PADUCAH        CLEAR     74  70  87 CALM      30.08R
HENDERSON      CLEAR     73  68  83 CALM      30.08R
OWENSBORO      PTCLDY    78  70  76 CALM      30.10R
HOPKINSVILLE   PTCLDY    77  69  75 N2        30.10R
BOWLING GREEN  MOCLDY    77  67  71 CALM      30.11R
GLASGOW        PTCLDY    73  68  85 CALM      30.12R
$$

KYZ024-025-028>034-038-045-046-053-020300-
NORTH CENTRAL KENTUCKY

CITY           SKY/WX    TMP DP  RH WIND       PRES   REMARKS
LOUISVILLE/SDF PTCLDY    80  64  58 CALM      30.10R
LOUISVILLE/LOU PTCLDY    74  70  87 CALM      30.11R
FORT KNOX      PTCLDY    71  67  87 CALM      30.10R
$$

KYZ035>037-039>044-047>052-055>060-089>105-020300-
NORTHEAST KENTUCKY

CITY           SKY/WX    TMP DP  RH WIND       PRES   REMARKS
LEXINGTON      PTCLDY    76  67  73 CALM      30.13R
COVINGTON      PTCLDY    76  67  73 W3        30.11R
FRANKFORT      PTCLDY    73  66  78 CALM      30.11R
$$

KYZ054-064>069-076>088-106>120-020300-
SOUTHEAST KENTUCKY

CITY           SKY/WX    TMP DP  RH WIND       PRES   REMARKS
JACKSON        PTCLDY    78  63  59 NW3       30.15R
LONDON         MOCLDY    74  66  76 CALM      30.14R
SOMERSET       MOCLDY    72  70  94 CALM      30.14R
MIDDLESBORO    PTCLDY    73  68  87 CALM      30.15R
MONTICELLO     MOCLDY    71  71 100 CALM      30.16R
$$




USA.gov is the U.S. government's official web portal to all federal, state and local government web resources and services.